Regional Weather Roundup
Issued by NWS Midland/Odessa, TX

Skip options and go directly to product.
Home | Oldest Version | Next Version | Current Version | All | Text Only | Save Text | Print | Product List | Glossary On

Skip product version selection by date and time.   
502
ASUS44 KMAF 272201
RWRMAF
MIDLAND AREA WEATHER ROUNDUP
NATIONAL WEATHER SERVICE MIDLAND TX
500 PM CDT THU AUG 27 2015

...IN SOUTHWEST TEXAS AND SOUTHEAST NEW MEXICO...

CITY           SKY/WX    TMP DP  RH WIND       PRES   REMARKS
ALPINE         FAIR      92  49  22 SE5       30.20F
ANDREWS        FAIR      95  48  20 S8G18     30.07F
ARTESIA        FAIR      93  52  24 W10G17    30.07F
BIG SPRING     FAIR      95  51  22 S8        30.06F
CARLSBAD       FAIR      97  48  18 E5        30.02F
DRYDEN           N/A     99  55  23 VRB3      30.00F
FORT STOCKTON  FAIR      97  49  19 NE12G20   30.04F
GUAD PASS      FAIR      91  47  21 SW13G20   30.22F
HOBBS          MOSUNNY   93  46  20 S6        30.09F
MARFA          FAIR      90  50  25 E6        30.19F
MIDLAND AIRPK  FAIR      97  46  17 S7        30.06F
MIDLAND INTL   FAIR      96  49  20 SE14      30.05F
ODESSA         FAIR      96  44  16 SE10      30.07F
PECOS          FAIR      99  50  19 E10       30.00F
PRESIDIO       NOT AVBL
SEMINOLE       FAIR      96  40  14 S8        30.08F
SNYDER         FAIR      96  54  24 S7        30.05F
WINK           FAIR      98  47  17 MISG      30.01F
$$
...OTHER STATIONS IN TEXAS...

CITY           SKY/WX    TMP DP  RH WIND       PRES   REMARKS
ABILENE        FAIR      97  57  26 S8        30.01F
AMARILLO       LGT RAIN  82  54  37 S26       30.06S
AUSTIN         PTSUNNY   94  60  32 E3        29.98F
BROWNSVILLE    FAIR      90  62  39 NE14      29.97F
CORPUS CHRISTI PTSUNNY   92  61  35 E12       29.98F
DALLAS FTW     PTSUNNY   95  61  32 E8        29.98F
DEL RIO        FAIR      98  61  29 SE9       29.95F
EL PASO        PTSUNNY   90  52  27 SW13      30.08F
HOUSTON INT    PTSUNNY   91  61  36 NE8       29.99F
LUBBOCK        FAIR      94  46  19 S12G20    30.06F
SAN ANGELO     FAIR      99  56  23 S6        30.00F
SAN ANTONIO    PTSUNNY   95  63  34 SE9       29.99F
WACO           FAIR      96  58  27 E10       29.99F
WICHITA FALLS  NOT AVBL
$$
...OTHER LOCATIONS IN NEW MEXICO...

CITY           SKY/WX    TMP DP  RH WIND       PRES   REMARKS
ALAMAGORDO     FAIR      91  48  22 NW8       30.11F
ALBUQUERQUE    PTSUNNY   84  50  30 NW12      30.20F
CANNON AFB     NOT AVBL
CLOVIS         PTSUNNY   82  57  42 SW16G32   30.11S
HOLLOMAN AFB   FAIR      94  51  23 VRB2      30.07F
ROSWELL        FAIR      85  56  37 NW12      30.07F
RUIDOSO        PTSUNNY   72  54  53 MISG      30.33F
SANTA FE       PTSUNNY   82  51  34 N8        30.23F
TRUTH OR CONSE LGT RAIN  81  58  45 W7        30.15F
TUCUMCARI      FAIR      93  50  23 W14       30.02F
$$

USA.gov is the U.S. government's official web portal to all federal, state and local government web resources and services.